Location: Maiden
(35.5760°N, 81.2120°W)
Time: 02:30:30
(UTC-04:00)

A-11 Canister half - Pass Details

Date: 13 August 2020
Orbit: 1527 x 1682 km, 47.3° (Epoch: 25 September)

Event Time Altitude Azimuth Distance (km) Brightness Sun altitude
Rises 09:31:34 0° 185° (S) 4,831 11.6 33.0°
Reaches altitude 10° 09:35:37 10° 170° (S) 3,872 11.4 33.8°
Maximum altitude 09:42:38 22° 125° (SE) 3,055 11.9 35.2°
Drops below altitude 10° 09:49:44 10° 79° (E) 3,939 12.3 36.6°
Sets 09:53:51 0° 66° (ENE) 4,936 12.3 37.5°
